This is the latest recevied weather packets stored in our database for station/object KE8RXN. If no packets are shown the sender has not sent any weather packets the latest 10 day(s).
| Time | Temp. | Humidity | Pressure | Rain* | Wind** | Luminosity | Snow |
|---|---|---|---|---|---|---|---|
| 1777829081 | 14.44° C | 54% | 1014.2 hPa | 0 mm | - | 555 W/m² | - |
| 1777828777 | 13.89° C | 54% | 1014.5 hPa | 0 mm | - | 198 W/m² | - |
| 1777828474 | 13.33° C | 56% | 1014.6 hPa | 0 mm | - | 389 W/m² | - |
| 1777828171 | 13.89° C | 56% | 1014.6 hPa | 0 mm | - | 449 W/m² | - |
| 1777827867 | 13.33° C | 57% | 1014.6 hPa | 0 mm | - | 484 W/m² | - |
| 1777827565 | 13.33° C | 57% | 1014.8 hPa | 0 mm | - | 422 W/m² | - |
| 1777827262 | 12.78° C | 57% | 1014.9 hPa | 0 mm | - | 399 W/m² | - |
| 1777826958 | 12.78° C | 57% | 1014.9 hPa | 0 mm | - | 403 W/m² | - |
| 1777826655 | 12.78° C | 56% | 1014.8 hPa | 0 mm | - | 378 W/m² | - |
| 1777826351 | 12.78° C | 57% | 1014.8 hPa | 0 mm | - | 425 W/m² | - |
| 1777826050 | 12.22° C | 57% | 1014.9 hPa | 0 mm | - | 502 W/m² | - |
| 1777825746 | 12.22° C | 57% | 1015.1 hPa | 0 mm | - | 346 W/m² | - |
| 1777825444 | 11.67° C | 58% | 1015 hPa | 0 mm | - | 256 W/m² | - |
| 1777825141 | 11.67° C | 58% | 1015 hPa | 0 mm | - | 209 W/m² | - |
| 1777824837 | 11.67° C | 58% | 1015.1 hPa | 0 mm | - | 159 W/m² | - |
| 1777824534 | 11.67° C | 57% | 1015.3 hPa | 0 mm | - | 164 W/m² | - |
| 1777824230 | 11.67° C | 57% | 1015.2 hPa | 0 mm | - | 166 W/m² | - |
| 1777823925 | 11.67° C | 57% | 1015.2 hPa | 0 mm | - | 165 W/m² | - |
| 1777823623 | 11.67° C | 56% | 1015.2 hPa | 0 mm | - | 172 W/m² | - |
| 1777823320 | 11.67° C | 56% | 1015.3 hPa | 0 mm | - | 237 W/m² | - |
| 1777823018 | 11.67° C | 57% | 1015.6 hPa | 0 mm | - | 245 W/m² | - |
| 1777822716 | 11.67° C | 57% | 1015.6 hPa | 0 mm | - | 143 W/m² | - |
| 1777822413 | 11.67° C | 57% | 1015.6 hPa | 0 mm | - | 159 W/m² | - |
| 1777822111 | 11.67° C | 56% | 1015.7 hPa | 0 mm | - | 210 W/m² | - |
| 1777821808 | 11.67° C | 57% | 1015.7 hPa | 0 mm | - | 265 W/m² | - |
* Rain latest hour (hover to see other rain measurements)
** Current wind speed in m/s (hover to see current wind gust speed)